[[[{"header":{"parameterUnit":"kt","parameterCategory":2,"dx":1,"dy":1,"la1":30.253999710083008,"la2":30.299108505249023,"lo1":-89.0895004272461,"lo2":-89.04439544677734,"nx":28,"ny":28,"refTime":"2022-09-28T21:00:00:Z","depth":0,"parameterNumber":1,"parameterNumberName":"U-component_of_WINDS"},"data":[-4.4384,-4.4591,-4.457,-4.4797,-4.4817,-4.4969,-4.5018,-4.5077,-4.512,-4.5299,-4.5399,-4.54,-4.5435,-4.555,-4.5658,-4.5656,-4.5708,-4.5795,-4.578,-4.5403,-4.535,-4.5299,-4.5252,-4.5804,-4.5804,-4.6177,-4.618,-4.6183,-4.4109,-4.4131,-4.4244,-4.434,-4.4437,-4.434,-4.4409,-4.4498,-4.4637,-4.469,-4.4786,-4.4943,-4.5064,-4.507,-4.5185,-4.5282,-4.5247,-4.5316,-4.5313,-4.5322,-4.4915,-4.4865,-4.5343,-4.5343,-4.5343,-4.5343,-4.5343,-4.5343,-4.3605,-4.3729,-4.3775,-4.3898,-4.394,-4.4005,-4.412,-4.4118,-4.4229,-4.4345,-4.4297,-4.4455,-4.4506,-4.4633,-4.4671,-4.4794,-4.4715,-4.4786,-4.4806,-4.4827,-4.4855,-4.4332,-4.4811,-4.4809,-4.4808,-4.4807,-4.4806,0,-4.3232,-4.3207,-4.3313,-4.3415,-4.3503,-4.3579,-4.3647,-4.3716,-4.3656,-4.3751,-4.3886,-4.3961,-4.4109,-4.4236,-4.4338,-4.4363,-4.4279,-4.4264,-4.4315,-4.4348,-4.4361,-4.4365,-4.3711,-4.4254,-4.4249,-4.4245,-4.4243,-4.4241,-4.273,-4.2875,-4.2912,-4.2991,-4.3022,-4.3148,-4.322,-4.3155,-4.3235,-4.3308,-4.3421,-4.3545,-4.3642,-4.3863,-4.3862,-4.3974,-4.3936,-4.4146,-4.3953,-4.3974,-4.395,-4.3946,-4.3963,-4.4189,-4.4196,-4.4201,-4.4206,0,-4.2451,-4.2416,-4.2634,-4.2657,-4.2667,-4.2823,-4.2844,-4.2965,-4.2949,-4.3114,-4.3149,-4.3127,-4.3262,-4.3226,-4.3372,-4.335,-4.3613,-4.3567,-4.3596,-4.3588,-4.3779,-4.3765,-4.439,-4.4471,-4.3888,-4.3893,-4.3898,0,-4.2014,-4.2206,-4.2144,-4.2273,-4.2484,-4.2415,-4.2627,-4.2635,-4.2676,-4.2806,-4.2699,-4.2823,-4.2757,-4.2876,-4.2844,-4.305,-4.3075,-4.3074,-4.3065,-4.309,-4.3091,-4.314,-4.3118,-4.3028,-4.3025,-4.3022,-4.3019,0,-4.1588,-4.1777,-4.1984,-4.2023,-4.2068,-4.2167,-4.2191,-4.2236,-4.2308,-4.2393,-4.244,-4.2544,-4.2604,-4.2687,-4.2646,-4.2517,-4.2894,-4.2709,-4.2895,-4.2897,-4.2989,-4.2986,-4.3538,-4.3015,-4.3015,-4.3014,-4.3012,0,-4.1233,-4.1319,-4.1622,-4.1658,-4.1711,-4.1847,-4.1946,-4.2053,-4.2109,-4.2097,-4.2164,-4.2092,-4.2264,-4.2083,-4.2321,-4.2166,-4.2231,-4.2243,-4.2256,-4.2278,-4.208,-4.2408,-4.2929,-4.2987,-4.2286,-4.228,-4.2275,0,-4.0759,-4.1055,-4.0998,-4.1287,-4.142,-4.1294,-4.1442,-4.1495,-4.1491,-4.1604,-4.1598,-4.1728,-4.1585,-4.1622,-4.1742,-4.1746,-4.1947,-4.1716,-4.189,-4.1897,-4.1887,-4.2364,-4.2456,-4.2816,-4.2197,-4.2205,-4.2211,0,-4.0389,-4.0441,-4.0497,-4.054,-4.0596,-4.0706,-4.0876,-4.0988,-4.1067,-4.1135,-4.1281,-4.1457,-4.1359,-4.142,-4.1373,-4.1502,-4.1809,-4.138,-4.1381,-4.1466,-4.2151,-4.2238,-4.2299,-4.1749,-4.1758,-4.1766,-4.2148,0,-3.9876,-4.0017,-4.0163,-4.0259,-4.0336,-4.0513,-4.0475,-4.0562,-4.0508,-4.0501,-4.071,-4.0744,-4.0862,-4.0917,-4.0867,-4.1171,-4.1117,-4.101,-4.084,-4.1149,-4.1276,-4.1326,-4.0655,-4.065,-4.0645,-4.0642,0,0,-3.9436,-3.9638,-3.9571,-3.9734,-3.9797,-3.9665,-3.9859,-3.9904,-4.0001,-4.0048,-3.995,-4.0209,-4.0243,-4.0502,-4.0595,-4.0639,-4.0693,-4.0587,-4.1,-4.1041,-4.1078,-4.1213,-4.1266,-4.0634,-4.0632,-4.063,-4.0629,0,-3.9243,-3.9273,-3.9464,-3.9507,-3.9569,-3.9551,-3.9597,-3.9636,-3.9642,-3.9843,-3.9737,-3.9857,-4.0064,-4.0117,-4.0171,-4.0551,-4.0468,-4.0588,-4.0809,-4.0956,-4.1003,-4.1043,-4.1186,-4.1237,-4.0618,-4.0619,-4.0619,0,-3.8878,-3.8905,-3.8992,-3.9124,-3.9164,-3.9303,-3.9111,-3.9265,-3.9368,-3.9221,-3.9425,-3.944,-3.9505,-3.9752,-3.9861,-3.9777,-4.0266,-4.0103,-4.013,-4.0144,-4.0286,-4.0342,-4.0391,-3.9744,-3.9741,-3.9738,0,0,-3.8717,-3.8846,-3.8858,-3.908,-3.9112,-3.9089,-3.9158,-3.9113,-3.9172,-3.9197,-3.9216,-3.9279,-3.9399,-3.9481,-3.9591,-3.9866,-3.9878,-3.9997,-4.0038,-4.0072,-4.0105,-4.0256,-4.031,-3.9727,-3.9727,-3.9727,0,0,-3.8641,-3.8662,-3.8598,-3.8849,-3.8908,-3.8937,-3.9075,-3.8998,-3.9093,-3.907,-3.9003,-3.9017,-3.9246,-3.9267,-3.9124,-3.9532,-3.9362,-3.9395,-3.9512,-3.9563,-3.9604,-3.9598,-3.8939,0,0,0,0,0,-3.8425,-3.8658,-3.86,-3.8636,-3.8805,-3.8968,-3.899,-3.8939,-3.882,-3.8931,-3.8935,-3.8838,-3.9176,-3.9048,-3.9087,-3.925,-3.9586,-3.9611,-3.9635,-3.9849,-3.9904,-3.995,0,0,0,0,0,0,-3.8439,-3.8484,-3.8593,-3.8632,-3.8669,-3.8959,-3.8748,-3.874,-3.8807,-3.8786,-3.884,-3.884,-3.8801,-3.9025,-3.9061,-3.9216,-3.8927,-3.9596,-3.9617,-3.9637,-3.9868,-3.9912,-3.9951,0,0,0,0,0,-3.845,-3.8486,-3.8769,-3.8628,-3.8661,-3.8649,-3.8739,-3.8731,-3.8782,-3.8789,-3.8785,-3.8738,-3.8807,-3.8833,-3.9046,-3.9201,-3.8902,-3.8915,-3.961,-3.9627,-3.9642,-3.989,0,0,0,0,0,0,-3.8458,-3.8481,-3.8775,-3.8783,-3.8536,-3.8631,-3.8644,-3.8723,-3.8779,-3.8778,-3.8681,-3.8664,-3.8814,-3.8833,-3.8854,-3.9199,-3.8881,-3.8895,-3.8904,-3.9623,-3.9636,-3.9648,0,0,0,0,0,0,-3.8461,-3.8489,-3.8779,-3.8666,-3.866,-3.8616,-3.8628,-3.8801,-3.8782,-3.8669,-3.8656,-3.8673,-3.8783,-3.8834,-3.885,-3.9122,-3.8866,-3.8879,-3.8888,-3.8894,-3.9633,-3.9644,0,0,0,0,0,0,-3.8472,-3.8495,-3.8663,-3.8659,-3.8654,-3.8741,-3.8768,-3.8944,-3.8682,-3.8668,-3.8657,-3.8646,-3.8787,-3.8802,-3.8848,-3.9114,-3.912,-3.8866,-3.8875,-3.8881,-3.8885,0,0,0,0,0,0,0,-3.848,-3.8333,-3.8727,-3.8654,-3.8649,-3.8857,-3.886,-3.8862,-3.868,-3.867,-3.866,-3.8651,-3.8791,-3.8805,-3.882,-3.9108,0,0,-3.8865,-3.8871,0,0,0,0,0,0,0,0,-3.8322,-3.8331,-3.8727,-3.8729,-3.873,-3.8858,-3.8859,-3.8861,-3.8678,-3.867,-3.8662,-3.8655,-3.8795,-3.8806,-3.8818,0,0,0,0,0,0,0,0,0,0,0,0,0,0,0,-3.8727,-3.8728,0,-3.8858,-3.8859,-3.8861,-3.8677,-3.867,-3.8664,-3.8658,-3.8798,-3.8807,-3.8817,0,0,0,0,0,0,0,0,0,0,0,0,0,0,0,0,0,0,0,0,0,0,0,0,0,0,0,0,0,0,0,0,0,0,0,0,0,0,0,0,0,0,0,0,0,0,0,0,0,0,0,0,0,0,0,0,0,0,0,0,0,0,0,0,0,0,0,0,0]}],[{"header":{"parameterUnit":"kt","parameterCategory":2,"dx":1,"dy":1,"la1":30.253999710083008,"la2":30.299108505249023,"lo1":-89.0895004272461,"lo2":-89.04439544677734,"nx":28,"ny":28,"refTime":"2022-09-28T21:00:00:Z","depth":0,"parameterNumber":2,"parameterNumberName":"V-component_of_WINDS"},"data":[-14.5527,-14.5773,-14.5745,-14.601,-14.6028,-14.6202,-14.6255,-14.6318,-14.6359,-14.656,-14.6669,-14.666,-14.6685,-14.6804,-14.6917,-14.6909,-14.6959,-14.7069,-14.7041,-14.6583,-14.6517,-14.6455,-14.6396,-14.7081,-14.7081,-14.7519,-14.7523,-14.7526,-14.5193,-14.5215,-14.5348,-14.5456,-14.5568,-14.5444,-14.5518,-14.5618,-14.5776,-14.5829,-14.5935,-14.6107,-14.6237,-14.6224,-14.6343,-14.6452,-14.6399,-14.6486,-14.6477,-14.6483,-14.5992,-14.5931,-14.6528,-14.6527,-14.6527,-14.6527,-14.6527,-14.6527,-14.4576,-14.4726,-14.4774,-14.4917,-14.4962,-14.5034,-14.5168,-14.5156,-14.5281,-14.5406,-14.5341,-14.5517,-14.556,-14.5686,-14.5719,-14.5852,-14.5748,-14.5832,-14.5853,-14.5876,-14.5906,-14.5278,-14.587,-14.5868,-14.5866,-14.5865,-14.5863,0,-14.4115,-14.4081,-14.4206,-14.4323,-14.4424,-14.451,-14.4583,-14.4665,-14.4574,-14.4682,-14.4833,-14.4914,-14.5073,-14.5208,-14.5311,-14.5326,-14.5205,-14.5189,-14.5246,-14.5281,-14.5299,-14.5292,-14.4494,-14.5171,-14.5165,-14.5161,-14.5158,-14.5155,-14.3491,-14.3669,-14.3703,-14.3795,-14.3827,-14.3976,-14.4057,-14.3964,-14.4054,-14.4126,-14.426,-14.4395,-14.4499,-14.4743,-14.472,-14.4837,-14.4778,-14.5041,-14.4795,-14.4821,-14.4781,-14.4772,-14.4788,-14.509,-14.5099,-14.5105,-14.5111,0,-14.3141,-14.3091,-14.3355,-14.3371,-14.3379,-14.3569,-14.3579,-14.3722,-14.3691,-14.3883,-14.3922,-14.3874,-14.4022,-14.3956,-14.411,-14.407,-14.4375,-14.4315,-14.4359,-14.4344,-14.4572,-14.4551,-14.5324,-14.5419,-14.4709,-14.4715,-14.4721,0,-14.2588,-14.2824,-14.2734,-14.289,-14.3148,-14.3048,-14.3305,-14.3304,-14.3341,-14.3491,-14.3344,-14.3486,-14.3379,-14.3511,-14.3453,-14.369,-14.3719,-14.3702,-14.3684,-14.3716,-14.3718,-14.376,-14.3727,-14.3636,-14.3632,-14.3628,-14.3625,0,-14.2047,-14.2275,-14.2528,-14.2572,-14.261,-14.2731,-14.2751,-14.2791,-14.2871,-14.2962,-14.3012,-14.3125,-14.3188,-14.3276,-14.3201,-14.3036,-14.3489,-14.3247,-14.3471,-14.3474,-14.3575,-14.357,-14.427,-14.3621,-14.3619,-14.3618,-14.3617,0,-14.1591,-14.1691,-14.2067,-14.2095,-14.2158,-14.2324,-14.243,-14.2557,-14.2609,-14.2584,-14.2655,-14.2548,-14.275,-14.2515,-14.2791,-14.2598,-14.2667,-14.2669,-14.2684,-14.2698,-14.2436,-14.2841,-14.3515,-14.3583,-14.271,-14.2703,-14.2696,0,-14.0985,-14.1351,-14.1268,-14.1627,-14.1786,-14.161,-14.1791,-14.1843,-14.1824,-14.1953,-14.1929,-14.2077,-14.1888,-14.1924,-14.207,-14.2051,-14.2302,-14.2015,-14.2198,-14.2206,-14.2191,-14.281,-14.2928,-14.3375,-14.2598,-14.2609,-14.2616,0,-14.0509,-14.0556,-14.0627,-14.0671,-14.0726,-14.0857,-14.1067,-14.1192,-14.1283,-14.1356,-14.1527,-14.1732,-14.1597,-14.1659,-14.1583,-14.1738,-14.2129,-14.1572,-14.1571,-14.1674,-14.2544,-14.2654,-14.273,-14.2043,-14.2055,-14.2064,-14.2538,0,-13.9832,-14.0008,-14.0194,-14.0299,-14.0391,-14.0611,-14.0543,-14.0647,-14.0566,-14.0541,-14.0791,-14.0814,-14.0939,-14.1006,-14.0928,-14.1305,-14.1231,-14.1085,-14.0851,-14.1259,-14.1413,-14.1476,-14.0627,-14.0619,-14.0613,-14.0608,0,0,-13.9264,-13.9515,-13.9418,-13.9619,-13.969,-13.9504,-13.9745,-13.9792,-13.9891,-13.9943,-13.9812,-14.0106,-14.0131,-14.0441,-14.0562,-14.0613,-14.0673,-14.0534,-14.1065,-14.1117,-14.1164,-14.133,-14.1397,-14.0597,-14.0595,-14.0592,-14.0591,0,-13.9003,-13.9039,-13.928,-13.9325,-13.9388,-13.935,-13.9409,-13.9436,-13.9431,-13.9677,-13.9517,-13.9658,-13.9896,-13.9942,-13.9997,-14.0495,-14.0365,-14.0538,-14.0829,-14.1006,-14.1065,-14.1117,-14.1294,-14.1359,-14.0575,-14.0576,-14.0577,0,-13.8521,-13.8544,-13.8654,-13.8809,-13.8848,-13.9016,-13.8754,-13.8943,-13.9065,-13.8848,-13.9094,-13.9098,-13.9154,-13.9457,-13.959,-13.9474,-14.0089,-13.9882,-13.9919,-13.9932,-14.0099,-14.0171,-14.0235,-13.9394,-13.939,-13.9386,0,0,-13.8304,-13.8468,-13.8462,-13.8748,-13.8784,-13.8731,-13.8813,-13.874,-13.8797,-13.8821,-13.8823,-13.8881,-13.9017,-13.9109,-13.9233,-13.9576,-13.9578,-13.9739,-13.9795,-13.9841,-13.9879,-14.0059,-14.013,-13.9372,-13.9372,-13.9371,0,0,-13.8199,-13.8205,-13.8114,-13.8438,-13.85,-13.851,-13.8686,-13.8573,-13.8679,-13.8646,-13.8528,-13.8539,-13.882,-13.883,-13.8645,-13.9148,-13.8918,-13.896,-13.9132,-13.9202,-13.9256,-13.9248,-13.8378,0,0,0,0,0,-13.7898,-13.8204,-13.8122,-13.8166,-13.836,-13.8557,-13.858,-13.8493,-13.8331,-13.8473,-13.8456,-13.8311,-13.8706,-13.854,-13.8583,-13.879,-13.9186,-13.9219,-13.925,-13.9552,-13.9625,-13.9687,0,0,0,0,0,0,-13.7914,-13.7969,-13.8113,-13.8139,-13.8181,-13.8545,-13.8252,-13.8236,-13.8314,-13.8283,-13.832,-13.8313,-13.8239,-13.8511,-13.8552,-13.875,-13.8364,-13.9199,-13.9227,-13.9252,-13.9577,-13.9637,-13.9688,0,0,0,0,0,-13.7927,-13.7971,-13.8306,-13.8133,-13.817,-13.8127,-13.824,-13.8224,-13.8282,-13.8257,-13.8246,-13.821,-13.8248,-13.8276,-13.8535,-13.8734,-13.8335,-13.835,-13.9217,-13.9239,-13.9259,-13.9606,0,0,0,0,0,0,-13.7937,-13.7957,-13.8311,-13.8319,-13.8011,-13.8105,-13.8116,-13.8215,-13.8249,-13.8241,-13.814,-13.8115,-13.8257,-13.8277,-13.83,-13.8734,-13.8311,-13.8327,-13.8337,-13.9234,-13.9251,-13.9267,0,0,0,0,0,0,-13.7932,-13.7965,-13.8315,-13.8167,-13.8157,-13.8085,-13.8096,-13.8302,-13.8252,-13.8129,-13.8109,-13.8128,-13.8222,-13.828,-13.8297,-13.8622,-13.8293,-13.8308,-13.8319,-13.8326,-13.9248,-13.9262,0,0,0,0,0,0,-13.7944,-13.7972,-13.8164,-13.8157,-13.8147,-13.8228,-13.8264,-13.8467,-13.8128,-13.813,-13.8095,-13.808,-13.8229,-13.8243,-13.8296,-13.8615,-13.8621,-13.8294,-13.8304,-13.8311,-13.8316,0,0,0,0,0,0,0,-13.7954,-13.779,-13.8266,-13.8148,-13.8139,-13.8392,-13.8394,-13.8396,-13.8125,-13.8112,-13.8098,-13.8086,-13.8206,-13.8223,-13.824,-13.861,0,0,-13.8292,-13.83,0,0,0,0,0,0,0,0,-13.7776,-13.7786,-13.8266,-13.8268,-13.8269,-13.8392,-13.8394,-13.8396,-13.8123,-13.8112,-13.8101,-13.8091,-13.8211,-13.8224,-13.8238,0,0,0,0,0,0,0,0,0,0,0,0,0,0,0,-13.8266,-13.8268,0,-13.8392,-13.8394,-13.8395,-13.8121,-13.8112,-13.8103,-13.8095,-13.8215,-13.8226,-13.8237,0,0,0,0,0,0,0,0,0,0,0,0,0,0,0,0,0,0,0,0,0,0,0,0,0,0,0,0,0,0,0,0,0,0,0,0,0,0,0,0,0,0,0,0,0,0,0,0,0,0,0,0,0,0,0,0,0,0,0,0,0,0,0,0,0,0,0,0,0]}]]]